TimeMDT,TemperatureF,Dew PointF,Humidity,Sea Level PressureIn,VisibilityMPH,Wind Direction,Wind SpeedMPH,Gust SpeedMPH,PrecipitationIn,Events,Conditions,WindDirDegrees,DateUTC
12:53 AM,12.0,8.1,84,30.40,10.0,WSW,6.9,-,N/A,,Clear,240,2013-03-26 06:53:00
1:53 AM,12.0,7.0,80,30.38,10.0,West,6.9,-,N/A,,Clear,260,2013-03-26 07:53:00
2:53 AM,10.0,3.9,76,30.36,10.0,WSW,6.9,-,N/A,,Clear,240,2013-03-26 08:53:00
3:53 AM,9.0,3.9,80,30.35,10.0,SW,6.9,-,N/A,,Clear,230,2013-03-26 09:53:00
4:53 AM,8.1,3.0,80,30.33,10.0,Calm,Calm,-,N/A,,Clear,0,2013-03-26 10:53:00
5:53 AM,6.1,1.0,80,30.33,10.0,Calm,Calm,-,N/A,,Clear,0,2013-03-26 11:53:00
6:53 AM,7.0,1.9,80,30.34,10.0,South,3.5,-,N/A,,Clear,180,2013-03-26 12:53:00
7:53 AM,12.0,6.1,77,30.34,10.0,SE,3.5,-,N/A,,Clear,140,2013-03-26 13:53:00
8:53 AM,19.0,8.1,62,30.32,10.0,SSW,11.5,-,N/A,,Clear,200,2013-03-26 14:53:00
9:53 AM,21.9,12.0,66,30.30,10.0,South,9.2,-,N/A,,Clear,190,2013-03-26 15:53:00
10:53 AM,28.0,15.1,58,30.26,10.0,South,10.4,-,N/A,,Clear,170,2013-03-26 16:53:00
11:53 AM,33.1,19.9,59,30.23,10.0,South,11.5,-,N/A,,Clear,180,2013-03-26 17:53:00
12:53 PM,35.1,21.9,59,30.21,10.0,South,15.0,-,N/A,,Clear,170,2013-03-26 18:53:00
1:53 PM,37.0,26.1,65,30.18,10.0,South,15.0,-,N/A,,Clear,180,2013-03-26 19:53:00
2:53 PM,37.9,26.1,62,30.17,10.0,South,18.4,-,N/A,,Clear,170,2013-03-26 20:53:00
3:53 PM,39.0,28.0,65,30.14,10.0,SSE,16.1,-,N/A,,Clear,160,2013-03-26 21:53:00
4:53 PM,39.9,26.1,58,30.12,10.0,South,12.7,-,N/A,,Clear,170,2013-03-26 22:53:00
5:53 PM,37.9,26.1,62,30.13,10.0,South,10.4,-,N/A,,Clear,170,2013-03-26 23:53:00
6:53 PM,36.0,28.0,73,30.14,10.0,Calm,Calm,-,N/A,,Clear,0,2013-03-27 00:53:00
7:53 PM,33.1,27.0,78,30.14,10.0,East,4.6,-,N/A,,Overcast,90,2013-03-27 01:53:00
8:53 PM,37.0,26.1,65,30.13,10.0,ENE,4.6,-,N/A,,Overcast,70,2013-03-27 02:53:00
9:53 PM,36.0,27.0,70,30.14,10.0,East,6.9,-,N/A,,Overcast,100,2013-03-27 03:53:00
10:53 PM,35.1,28.0,76,30.13,10.0,SW,4.6,-,N/A,,Overcast,220,2013-03-27 04:53:00
11:53 PM,33.1,27.0,78,30.12,10.0,NNE,4.6,-,N/A,,Scattered Clouds,20,2013-03-27 05:53:00